RYR8286 EGSS-LEAL

Flight info

Callsign RYR8286
Flight time N/A
Altitude 35000
Route NUGBO1S NUGBO M183 SILVA Q41 COWLY UT71 VAPID UN859 SOPIL DCT BALAN DCT LMG DCT PIMQO DCT AGN DCT ANETO DCT POSSY DCT XIMPE DCT RIMES N860 VLC VLC3L
Aircraft B738/M-SDE2E3FGHIRWXY/LB1

Departure

Time 2026-05-04 15:04
Airport London Stansted Airport (EGSS)

Arrival

Time N/A
Airport Alicante-Elche Miguel Hernández Airport (LEAL)
Time Latitude Longitude Altitude Speed Heading
2026-05-04 14:45 51.89407 0.25773 360 ft 0 kts 107°
2026-05-04 14:50 51.89411 0.25753 361 ft 4 kts 106°
2026-05-04 14:50 51.89420 0.25713 361 ft 4 kts 122°
2026-05-04 14:50 51.89437 0.25685 361 ft 4 kts 171°
2026-05-04 14:50 51.89450 0.25688 355 ft 0 kts 223°
2026-05-04 14:54 51.89439 0.25672 356 ft 5 kts 223°
2026-05-04 14:54 51.89400 0.25613 351 ft 10 kts 222°
2026-05-04 14:54 51.89334 0.25517 359 ft 15 kts 222°
2026-05-04 14:55 51.89253 0.25397 359 ft 16 kts 222°
2026-05-04 14:55 51.89174 0.25281 358 ft 15 kts 223°
2026-05-04 14:55 51.89100 0.25168 359 ft 14 kts 224°
2026-05-04 14:55 51.89029 0.25058 353 ft 14 kts 224°
2026-05-04 14:56 51.88962 0.24953 356 ft 13 kts 222°
2026-05-04 14:56 51.88896 0.24858 357 ft 13 kts 221°
2026-05-04 14:56 51.88832 0.24759 355 ft 12 kts 226°
2026-05-04 14:56 51.88767 0.24664 344 ft 15 kts 221°
2026-05-04 14:57 51.88688 0.24552 348 ft 15 kts 223°
2026-05-04 14:57 51.88615 0.24440 342 ft 14 kts 223°
2026-05-04 14:57 51.88545 0.24333 342 ft 14 kts 224°
2026-05-04 14:57 51.88479 0.24229 338 ft 13 kts 224°
2026-05-04 14:58 51.88414 0.24133 338 ft 13 kts 222°
2026-05-04 14:58 51.88350 0.24039 339 ft 12 kts 222°
2026-05-04 14:58 51.88288 0.23946 337 ft 12 kts 223°
2026-05-04 14:58 51.88227 0.23855 335 ft 12 kts 223°
2026-05-04 14:59 51.88169 0.23766 337 ft 11 kts 223°
2026-05-04 14:59 51.88112 0.23679 336 ft 11 kts 223°
2026-05-04 14:59 51.88003 0.23513 336 ft 10 kts 223°
2026-05-04 15:00 51.87950 0.23434 332 ft 10 kts 223°
2026-05-04 15:00 51.87900 0.23357 336 ft 10 kts 223°
2026-05-04 15:00 51.87850 0.23282 332 ft 10 kts 223°
2026-05-04 15:01 51.87750 0.23138 334 ft 11 kts 226°
2026-05-04 15:01 51.87749 0.23016 335 ft 13 kts 301°
2026-05-04 15:01 51.87768 0.22873 335 ft 16 kts 237°
2026-05-04 15:01 51.87685 0.22740 334 ft 17 kts 222°
2026-05-04 15:02 51.87598 0.22613 334 ft 17 kts 222°
2026-05-04 15:02 51.87505 0.22476 330 ft 18 kts 223°
2026-05-04 15:02 51.87416 0.22338 325 ft 18 kts 234°
2026-05-04 15:02 51.87426 0.22158 323 ft 18 kts 309°
2026-05-04 15:03 51.87507 0.22037 322 ft 13 kts 348°
2026-05-04 15:03 51.87587 0.22110 323 ft 18 kts 44°
2026-05-04 15:03 51.87887 0.22549 330 ft 99 kts 41°
2026-05-04 15:03 51.88572 0.23578 386 ft 165 kts 40°
2026-05-04 15:04 51.89466 0.24929 1149 ft 180 kts 40°
2026-05-04 15:04 51.90363 0.26276 2394 ft 175 kts 41°
2026-05-04 15:04 51.91326 0.27725 2888 ft 204 kts 41°
2026-05-04 15:04 51.92462 0.29303 3135 ft 227 kts 31°
2026-05-04 15:05 51.94005 0.30029 3551 ft 240 kts
2026-05-04 15:05 51.95662 0.29282 3857 ft 259 kts 325°
2026-05-04 15:05 51.96814 0.27057 4565 ft 263 kts 291°
2026-05-04 15:05 51.97256 0.24205 4940 ft 262 kts 278°
2026-05-04 15:06 51.97505 0.21346 4981 ft 257 kts 277°
2026-05-04 15:06 51.97585 0.18412 5008 ft 261 kts 256°